Location: Aurora Center
(43.5271°N, 98.5894°W)
Time: 10:52:26
(UTC-05:00)

ACS3 Solar Sail - Pass Details

Date: 25 June 2024
Orbit: 992 x 1023 km, 97.4° (Epoch: 12 July)

Event Time Altitude Azimuth Distance (km) Brightness Sun altitude
Exits shadow 00:26:37 - 224° (SW) 2,805 6.9 -21.2°
Reaches altitude 10° 00:26:47 10° 226° (SW) 2,760 6.9 -21.2°
Maximum altitude 00:31:12 20° 271° (W) 2,117 6.7 -21.4°
Drops below altitude 10° 00:35:39 10° 318° (NW) 2,764 8.0 -21.6°
Sets 00:38:54 0° 334° (NNW) 3,717 9.3 -21.8°
